Location: Prescott
(34.5400°N, 112.4680°W)
Time: 21:17:44
(UTC-07:00)

Amateur Radio Satellites - All Passes

Search period start: 30 August 2016 20:47
Search period end: 31 August 2016 20:47
Location: Prescott, 34.5400°N, 112.4680°W

Satellite Date Start Highest point End Downlink Frequencies (MHz)
Time Altitude Azimuth
AAUSAT CUBESAT 2 30 Aug 20:53:01 20:56:49 37° 262° (W) 21:00:39 437.432
UWE-3 30 Aug 20:59:25 21:03:55 57° 260° (W) 21:08:19 435.000/436.395/437.385
COMPASS 1 30 Aug 21:05:26 21:08:35 21° 265° (W) 21:11:44 437.405
ZACube-1 30 Aug 21:05:57 21:10:25 78° 259° (W) 21:14:47 437.345
CUBEBUG 2 30 Aug 21:09:49 21:13:52 29° 263° (W) 21:17:53 437.445
AIST 2 30 Aug 21:12:54 21:16:44 36° 247° (WSW) 21:20:34 435.215
PCSat 30 Aug 21:15:31 21:20:31 39° 251° (WSW) 21:25:29 145.827
GONETS M04 30 Aug 21:17:55 21:23:55 20° 68° (ENE) 21:29:51
HUMSAT D 30 Aug 21:22:07 21:25:39 27° 72° (ENE) 21:29:08 437.325/437.525
STRAND 1 30 Aug 21:24:15 21:26:08 12° 297° (WNW) 21:28:00 437.568
PRISM 30 Aug 21:33:38 21:37:46 61° 285° (WNW) 21:41:52 437.425
Cosmos 2499 30 Aug 21:52:16 21:57:25 21° 72° (ENE) 22:02:37 435.465 / 435.565
UNISAT 6 30 Aug 21:52:21 21:55:12 17° 94° (E) 21:58:02 437.425
O/OREOS (USA 219) 30 Aug 21:59:57 22:02:25 14° 59° (ENE) 22:04:51 437.305
DELFI C3 30 Aug 22:01:45 22:05:24 38° 262° (W) 22:09:05 145.870
Oscar 11 30 Aug 22:08:30 22:10:52 14° 267° (W) 22:13:15 145.826/435.025
SO-50 30 Aug 22:08:50 22:13:35 58° 116° (ESE) 22:18:21 436.795
FUNcube-1 30 Aug 22:21:53 22:23:21 11° 267° (W) 22:24:49 145.935
ANTELSAT 30 Aug 22:28:07 22:32:13 47° 99° (E) 22:36:19 437.575/2403.000
AUBIESAT-1 30 Aug 22:28:55 22:33:22 49° 69° (ENE) 22:37:49 437.475
M-CUBED/EXP-1 PRIME 30 Aug 22:37:31 22:42:11 77° 73° (ENE) 22:46:54 437.505
CUSAT 1 30 Aug 22:45:18 22:48:10 65° 96° (E) 22:51:45 437.405
AISAT 30 Aug 22:53:27 22:57:11 27° 70° (ENE) 23:00:57 437.250
RS-15 30 Aug 22:53:56 23:02:21 24° 101° (E) 23:11:00 29.354- 29.394
TIGRISAT 30 Aug 22:57:54 23:02:10 78° 283° (WNW) 23:06:23 435.000
HUMSAT D 30 Aug 22:58:17 23:01:13 19° 265° (W) 23:04:10 437.325/437.525
ESTCUBE 1 30 Aug 22:59:31 23:03:55 59° 75° (ENE) 23:08:20 437.505/2401.250
PHONESAT 2.4 30 Aug 23:01:32 23:04:07 26° 148° (SSE) 23:06:43 2401.200-2431.200
JAS-2 30 Aug 23:03:49 23:07:30 14° 91° (E) 23:11:17 435.910
GONETS M04 30 Aug 23:12:44 23:21:36 77° 266° (W) 23:30:23
QB50P1 30 Aug 23:16:57 23:20:10 21° 95° (E) 23:23:21 145.935-145.965
50 SAT 30 Aug 23:24:26 23:27:56 56° 75° (ENE) 23:31:27 437.505
POPSAT HIP 1 30 Aug 23:27:00 23:30:36 27° 97° (E) 23:34:10 437.405
UNISAT 6 30 Aug 23:28:11 23:31:57 31° 288° (WNW) 23:35:41 437.425
CUBEBUG 1 30 Aug 23:32:02 23:36:26 90° 209° (SSW) 23:40:53 437.445
SPROUT 30 Aug 23:33:00 23:36:53 34° 73° (ENE) 23:40:48 437.525
O/OREOS (USA 219) 30 Aug 23:37:38 23:42:05 50° 254° (WSW) 23:46:31 437.305
VELOX 1 30 Aug 23:39:34 23:44:00 89° 76° (ENE) 23:48:29 145.980
Cosmos 2499 30 Aug 23:44:00 23:50:50 55° 268° (W) 23:57:53 435.465 / 435.565
DX 1 30 Aug 23:44:28 23:48:47 67° 74° (ENE) 23:53:08 434.975-435.025
DUCHIFAT 1 30 Aug 23:49:56 23:53:59 46° 100° (E) 23:57:59 145.980
SO-50 30 Aug 23:51:18 23:54:25 17° 312° (NW) 23:57:30 436.795
QB50P2 30 Aug 23:57:52 00:02:06 75° 102° (ESE) 00:06:16 145.880/145.840
POLYITAN 1 31 Aug 00:00:22 00:04:35 76° 103° (ESE) 00:08:45 437.675
AUBIESAT-1 31 Aug 00:05:24 00:07:57 15° 263° (W) 00:10:31 437.475
NANOSAT C BR1 31 Aug 00:05:29 00:09:42 82° 103° (ESE) 00:13:52 145.865
ANTELSAT 31 Aug 00:06:48 00:08:29 12° 294° (WNW) 00:10:11 437.575/2403.000
UKube-1 31 Aug 00:17:55 00:22:11 63° 259° (WSW) 00:26:30 .
DANDE 31 Aug 00:18:11 00:20:03 17° 286° (WNW) 00:22:02 436.750
BUGSAT 1 31 Aug 00:29:52 00:33:55 56° 100° (E) 00:37:52 437.445
AISAT 31 Aug 00:30:04 00:33:34 23° 264° (W) 00:37:06 437.250
PHONESAT 2.4 31 Aug 00:37:25 00:40:21 48° 342° (NNW) 00:43:17 2401.200-2431.200
JAS-2 31 Aug 00:45:47 00:52:57 90° 288° (WNW) 01:00:45 435.910
QB50P1 31 Aug 00:52:24 00:55:52 25° 289° (WNW) 00:59:18 145.935-145.965
SWISSCUBE 31 Aug 00:57:59 01:00:26 14° 65° (ENE) 01:02:55 437.505
RS-15 31 Aug 01:01:52 01:13:20 79° 300° (WNW) 01:25:31 29.354- 29.394
POPSAT HIP 1 31 Aug 01:03:08 01:06:11 20° 291° (WNW) 01:09:13 437.405
SPROUT 31 Aug 01:10:09 01:12:53 16° 266° (W) 01:15:38 437.525
BEESAT 31 Aug 01:13:44 01:17:01 19° 67° (ENE) 01:20:19 436.000
TISAT 1 31 Aug 01:13:45 01:17:59 74° 259° (W) 01:22:15 437.305
GONETS M04 31 Aug 01:14:26 01:16:49 11° 284° (WNW) 01:19:10
DUCHIFAT 1 31 Aug 01:27:36 01:29:13 12° 294° (WNW) 01:30:49 145.980
Oscar 19 31 Aug 01:51:51 01:57:04 73° 102° (ESE) 02:02:14 437.125/150
Gurwin Techsat 1B 31 Aug 01:53:19 01:58:02 32° 97° (E) 02:02:44 435.225
ITUPSAT 1 31 Aug 02:02:05 02:06:46 62° 74° (ENE) 02:11:27 437.325
PHONESAT 2.4 31 Aug 02:14:31 02:17:04 24° 358° (N) 02:19:36 2401.200-2431.200
MOZHAYETS 4 31 Aug 02:31:22 02:34:12 16° 67° (ENE) 02:37:01
SWISSCUBE 31 Aug 02:33:08 02:37:45 52° 260° (W) 02:42:23 437.505
JAS-2 31 Aug 02:33:14 02:37:10 16° 298° (WNW) 02:41:17 435.910
AO-7 31 Aug 02:47:58 02:53:19 18° 94° (E) 02:58:38 29.400- 29.500
BEESAT 31 Aug 02:50:05 02:54:30 38° 261° (W) 02:58:55 436.000
ITAMSAT 1 31 Aug 03:14:20 03:19:26 57° 101° (E) 03:24:32 435.822/435.867
RS-15 31 Aug 03:19:11 03:28:09 24° 326° (NW) 03:37:29 29.354- 29.394
KKS-1 31 Aug 03:32:44 03:37:09 63° 75° (ENE) 03:41:36 437.445
Gurwin Techsat 1B 31 Aug 03:33:26 03:37:49 27° 292° (WNW) 03:42:11 435.225
Oscar 19 31 Aug 03:33:46 03:35:42 12° 297° (WNW) 03:37:38 437.125/150
ITUPSAT 1 31 Aug 03:43:48 03:44:55 11° 268° (W) 03:46:04 437.325
AO-85 31 Aug 03:47:11 03:52:25 55° 115° (ESE) 03:57:25 145.980
PHONESAT 2.4 31 Aug 03:50:59 03:53:49 37° 15° (NNE) 03:56:38 2401.200-2431.200
STARS 31 Aug 03:58:05 04:02:25 57° 74° (ENE) 04:06:47 437.465
CUBESAT XI-V 31 Aug 04:01:22 04:04:33 19° 68° (ENE) 04:07:45 437.345
YUBILEINY 31 Aug 04:05:56 04:09:45 14° 78° (ENE) 04:13:33 435.215
MOZHAYETS 4 31 Aug 04:06:44 04:11:00 40° 261° (W) 04:15:18
AO-7 31 Aug 04:38:26 04:46:45 78° 289° (WNW) 04:55:00 29.400- 29.500
Cosmos 2491 31 Aug 04:49:02 04:57:50 66° 81° (E) 05:06:36 435.465 / 435.565
HORYU 2 31 Aug 04:49:58 04:53:31 24° 96° (E) 04:57:03 437.375
ITAMSAT 1 31 Aug 04:55:30 04:58:23 15° 296° (WNW) 05:01:17 435.822/435.867
BRITE-PL 31 Aug 05:07:34 05:11:35 20° 92° (E) 05:15:29 437.365/2234.400
PHONESAT 2.4 31 Aug 05:27:21 05:30:10 40° 210° (SSW) 05:32:59 2401.200-2431.200
AO-85 31 Aug 05:29:25 05:33:10 19° 310° (NW) 05:36:46 145.980
CUBESAT XI-V 31 Aug 05:37:25 05:41:37 35° 262° (W) 05:45:52 437.345
STARS 31 Aug 05:38:20 05:39:04 10° 268° (W) 05:39:47 437.465
Cosmos 2504 31 Aug 05:39:55 05:45:52 22° 84° (E) 05:51:33 435.465 / 435.565
RS-15 31 Aug 05:42:31 05:47:33 13° 3° (N) 05:52:37 29.354- 29.394
YUBILEINY 31 Aug 05:56:17 06:05:08 86° 95° (E) 06:14:01 435.215
ISS 31 Aug 05:56:36 05:59:14 23° 130° (SE) 06:01:54 145.825
NOAA 18 31 Aug 05:56:59 06:00:57 20° 95° (E) 06:04:52 137.9125
GOMX 1 31 Aug 06:01:14 06:05:42 28° 94° (E) 06:09:56 467.674
NOAA 15 31 Aug 06:11:01 06:16:04 42° 99° (E) 06:21:04 137.62
Cubesat XI-IV 31 Aug 06:12:22 06:17:08 33° 98° (E) 06:21:54 437.490
LilacSat-2 31 Aug 06:18:43 06:22:13 36° 98° (E) 06:25:42 437.200
CUTE-I 31 Aug 06:22:44 06:27:46 43° 99° (E) 06:32:47 437.470
HORYU 2 31 Aug 06:26:22 06:29:58 25° 290° (WNW) 06:33:34 437.375
AO-7 31 Aug 06:34:00 06:38:10 15° 307° (NW) 06:42:20 29.400- 29.500
SO-50 31 Aug 06:44:30 06:47:55 20° 50° (NE) 06:51:16 436.795
BRITE-PL 31 Aug 06:44:48 06:50:15 47° 287° (WNW) 06:55:26 437.365/2234.400
Cosmos 2491 31 Aug 06:47:30 06:53:48 22° 278° (W) 07:00:07 435.465 / 435.565
STRAND 1 31 Aug 06:54:46 06:59:50 70° 75° (ENE) 07:04:55 437.568
CANX-2 31 Aug 07:15:06 07:17:00 13° 93° (E) 07:18:53 2200.000
CUTE 1.7 + AOD 2 31 Aug 07:20:25 07:22:17 13° 93° (E) 07:24:08 437.475
DOVE 4 31 Aug 07:25:01 07:29:57 89° 285° (WNW) 07:34:33 437.250
Cosmos 2504 31 Aug 07:30:15 07:38:37 64° 278° (W) 07:46:26 435.465 / 435.565
ISS 31 Aug 07:32:45 07:35:36 27° 324° (NW) 07:38:29 145.825
AIST 1 31 Aug 07:33:56 07:35:50 13° 86° (E) 07:37:44
NOAA 18 31 Aug 07:36:35 07:41:44 44° 289° (WNW) 07:46:51 137.9125
CINEMA 3 31 Aug 07:36:58 07:40:44 28° 96° (E) 07:44:21 145.822/145.860
GOMX 1 31 Aug 07:39:08 07:43:40 29° 291° (WNW) 07:47:59 467.674
NOAA 15 31 Aug 07:51:37 07:55:30 21° 294° (WNW) 07:59:22 137.62
Cubesat XI-IV 31 Aug 07:52:41 07:57:01 26° 292° (WNW) 08:01:20 437.490
LilacSat-2 31 Aug 07:54:43 07:56:08 12° 292° (WNW) 07:57:34 437.200
RS-15 31 Aug 07:56:27 08:06:33 28° 38° (NE) 08:16:30 29.354- 29.394
YUBILEINY 31 Aug 07:57:42 08:02:58 17° 293° (WNW) 08:08:17 435.215
CUTE-I 31 Aug 08:03:38 08:07:28 21° 294° (WNW) 08:11:17 437.470
HO-68 31 Aug 08:12:37 08:19:40 58° 102° (ESE) 08:26:40 435.675
SEEDS 31 Aug 08:19:00 08:23:03 45° 99° (E) 08:27:06 437.485
PRISM 31 Aug 08:19:14 08:23:13 55° 75° (ENE) 08:27:16 437.425
BEESAT 2 31 Aug 08:20:07 08:23:49 40° 114° (ESE) 08:27:31 435.950
SO-50 31 Aug 08:24:19 08:28:31 38° 246° (WSW) 08:32:36 436.795
BEESAT 3 31 Aug 08:29:42 08:33:35 68° 300° (WNW) 08:37:30 437.485
FUNcube-1 31 Aug 08:36:24 08:37:44 11° 93° (E) 08:39:04 145.935
STRAND 1 31 Aug 08:38:24 08:39:25 11° 269° (W) 08:40:27 437.568
AAUSAT CUBESAT 2 31 Aug 08:38:24 08:42:20 39° 98° (E) 08:46:16 437.432
CANX-2 31 Aug 08:49:00 08:53:00 42° 286° (WNW) 08:57:02 2200.000
UNISAT 6 31 Aug 08:49:15 08:50:52 12° 66° (ENE) 08:52:28 437.425
JUGNU 31 Aug 08:49:57 08:53:14 15° 169° (S) 08:56:30 437.505
COMPASS 1 31 Aug 08:50:23 08:54:36 76° 102° (ESE) 08:58:47 437.405
UWE-3 31 Aug 08:52:51 08:56:39 34° 98° (E) 09:00:24 435.000/436.395/437.385
CUTE 1.7 + AOD 2 31 Aug 08:54:15 08:58:17 43° 286° (WNW) 09:02:18 437.475
ZACube-1 31 Aug 08:58:25 09:01:47 24° 96° (E) 09:05:09 437.345
CUBEBUG 2 31 Aug 09:03:40 09:07:51 77° 102° (ESE) 09:11:58 437.445
AIST 1 31 Aug 09:08:51 09:12:57 41° 280° (W) 09:17:07
DANDE 31 Aug 09:13:25 09:17:22 17° 74° (ENE) 09:21:49 436.750
CINEMA 3 31 Aug 09:14:27 09:17:40 20° 291° (WNW) 09:20:47 145.822/145.860
CUSAT 1 31 Aug 09:18:29 09:25:19 49° 79° (ENE) 09:32:58 437.405
ANTELSAT 31 Aug 09:23:28 09:27:23 29° 71° (ENE) 09:31:15 437.575/2403.000
DELFI C3 31 Aug 09:42:34 09:46:10 32° 98° (E) 09:49:46 145.870
TIGRISAT 31 Aug 09:52:31 09:57:02 58° 75° (ENE) 10:01:27 435.000
SEEDS 31 Aug 09:56:29 09:58:19 13° 293° (WNW) 10:00:08 437.485
Oscar 11 31 Aug 09:56:54 10:01:10 61° 284° (WNW) 10:05:25 145.826/435.025
BEESAT 2 31 Aug 09:59:25 10:01:48 15° 310° (NW) 10:04:10 435.950
HO-68 31 Aug 10:01:24 10:06:51 24° 298° (WNW) 10:12:17 435.675
QB50P1 31 Aug 10:08:06 10:09:14 11° 66° (ENE) 10:10:22 145.935-145.965
RS-15 31 Aug 10:08:27 10:20:55 89° 63° (ENE) 10:33:01 29.354- 29.394
PCSat 31 Aug 10:10:07 10:15:14 45° 110° (ESE) 10:20:22 145.827
FUNcube-1 31 Aug 10:10:14 10:14:10 43° 286° (WNW) 10:18:05 145.935
GONETS M04 31 Aug 10:14:50 10:21:30 25° 83° (E) 10:28:11
AAUSAT CUBESAT 2 31 Aug 10:15:16 10:17:26 14° 292° (WNW) 10:19:36 437.432
POPSAT HIP 1 31 Aug 10:17:18 10:19:35 14° 67° (ENE) 10:21:50 437.405
UNISAT 6 31 Aug 10:22:33 10:27:05 58° 259° (W) 10:31:32 437.425
Cosmos 2499 31 Aug 10:25:21 10:30:53 21° 84° (E) 10:36:10 435.465 / 435.565
UWE-3 31 Aug 10:30:21 10:32:48 15° 292° (WNW) 10:35:14 435.000/436.395/437.385
ZACube-1 31 Aug 10:34:47 10:37:56 21° 290° (WNW) 10:41:04 437.345
SRMSAT 31 Aug 10:35:42 10:38:03 12° 166° (SSE) 10:40:23 437.500
JUGNU 31 Aug 10:37:25 10:41:32 19° 179° (S) 10:45:39 437.505
DUCHIFAT 1 31 Aug 10:38:48 10:42:06 22° 70° (ENE) 10:45:24 145.980
HUMSAT D 31 Aug 10:43:33 10:47:40 86° 104° (ESE) 10:51:47 437.325/437.525
QB50P2 31 Aug 10:46:59 10:50:50 34° 73° (ENE) 10:54:42 145.880/145.840
POLYITAN 1 31 Aug 10:49:28 10:53:21 35° 72° (ENE) 10:57:13 437.675
DANDE 31 Aug 10:54:01 11:00:13 75° 263° (W) 11:07:59 436.750
NANOSAT C BR1 31 Aug 10:54:02 10:57:56 36° 73° (ENE) 11:01:50 145.865
ESTCUBE 1 31 Aug 10:56:39 10:59:33 17° 94° (E) 11:02:26 437.505/2401.250
JAS-2 31 Aug 10:56:48 11:00:49 23° 65° (ENE) 11:05:01 435.910
ANTELSAT 31 Aug 11:00:29 11:04:02 22° 264° (W) 11:07:33 437.575/2403.000
CUSAT 1 31 Aug 11:01:00 11:07:05 31° 270° (W) 11:13:45 437.405
AIST 2 31 Aug 11:06:29 11:10:33 75° 299° (WNW) 11:14:41 435.215
BUGSAT 1 31 Aug 11:16:18 11:19:46 25° 71° (ENE) 11:23:15 437.445
DELFI C3 31 Aug 11:18:18 11:20:43 16° 291° (WNW) 11:23:08 145.870
CUBEBUG 1 31 Aug 11:24:54 11:28:20 22° 96° (E) 11:31:42 437.445
TIGRISAT 31 Aug 11:33:03 11:33:58 11° 268° (W) 11:34:52 435.000
VELOX 1 31 Aug 11:33:55 11:37:22 22° 96° (E) 11:40:48 145.980
DX 1 31 Aug 11:37:34 11:40:06 15° 94° (E) 11:42:37 434.975-435.025
QB50P1 31 Aug 11:40:18 11:44:30 55° 260° (W) 11:48:41 145.935-145.965
AUBIESAT-1 31 Aug 11:46:03 11:49:50 58° 105° (ESE) 11:53:20 437.475
POPSAT HIP 1 31 Aug 11:50:55 11:54:57 41° 261° (W) 11:59:01 437.405
PCSat 31 Aug 11:54:36 11:58:48 23° 307° (NW) 12:03:02 145.827
M-CUBED/EXP-1 PRIME 31 Aug 11:55:27 11:59:23 79° 289° (WNW) 12:02:58 437.505
O/OREOS (USA 219) 31 Aug 12:07:41 12:11:28 27° 103° (ESE) 12:15:18 437.305
UKube-1 31 Aug 12:08:52 12:12:33 27° 97° (E) 12:16:13 .
GONETS M04 31 Aug 12:08:59 12:17:34 60° 280° (W) 12:26:18
DUCHIFAT 1 31 Aug 12:14:08 12:17:38 25° 264° (W) 12:21:08 145.980
Cosmos 2499 31 Aug 12:15:18 12:23:22 64° 278° (W) 12:30:52 435.465 / 435.565
SRMSAT 31 Aug 12:22:31 12:26:29 18° 176° (S) 12:30:27 437.500
AISAT 31 Aug 12:22:32 12:27:01 89° 104° (ESE) 12:31:26 437.250
RS-15 31 Aug 12:23:38 12:31:43 21° 261° (W) 12:39:42 29.354- 29.394
QB50P2 31 Aug 12:24:02 12:26:41 16° 266° (W) 12:29:23 145.880/145.840
AO-85 31 Aug 12:24:03 12:26:39 16° 48° (NE) 12:29:09 145.980
JUGNU 31 Aug 12:26:22 12:29:52 16° 190° (S) 12:33:22 437.505
POLYITAN 1 31 Aug 12:26:33 12:29:12 16° 266° (W) 12:31:50 437.675
ISS 31 Aug 12:28:50 12:29:02 10° 25° (NNE) 12:29:13 145.825
50 SAT 31 Aug 12:29:14 12:32:51 67° 284° (WNW) 12:36:30 437.505
NANOSAT C BR1 31 Aug 12:31:17 12:33:45 15° 266° (W) 12:36:13 145.865
ESTCUBE 1 31 Aug 12:32:15 12:36:26 38° 288° (WNW) 12:40:37 437.505/2401.250
JAS-2 31 Aug 12:40:54 12:45:38 36° 263° (W) 12:50:41 435.910
BUGSAT 1 31 Aug 12:51:43 12:55:02 22° 264° (W) 12:58:22 437.445
SPROUT 31 Aug 12:57:42 13:01:58 74° 283° (WNW) 13:06:12 437.525
CUBEBUG 1 31 Aug 13:00:48 13:04:32 27° 289° (WNW) 13:08:14 437.445
TISAT 1 31 Aug 13:01:54 13:05:06 21° 96° (E) 13:08:17 437.305
Oscar 19 31 Aug 13:05:01 13:10:09 73° 75° (ENE) 13:15:21 437.125/150
VELOX 1 31 Aug 13:09:59 13:13:46 28° 290° (WNW) 13:17:32 145.980
Gurwin Techsat 1B 31 Aug 13:10:55 13:15:44 37° 70° (ENE) 13:20:34 435.225
DX 1 31 Aug 13:12:20 13:16:24 38° 288° (WNW) 13:20:26 434.975-435.025
AO-7 31 Aug 13:43:44 13:49:32 21° 57° (ENE) 13:55:19 29.400- 29.500
UKube-1 31 Aug 13:45:06 13:48:25 22° 291° (WNW) 13:51:42 .
O/OREOS (USA 219) 31 Aug 13:47:15 13:50:48 23° 298° (WNW) 13:54:24 437.305
ISS 31 Aug 14:02:46 14:06:02 65° 41° (NE) 14:09:17 145.825
AO-85 31 Aug 14:03:27 14:07:17 39° 247° (WSW) 14:10:54 145.980
ITUPSAT 1 31 Aug 14:06:51 14:10:26 21° 95° (E) 14:14:01 437.325
SRMSAT 31 Aug 14:11:08 14:14:58 18° 186° (S) 14:18:46 437.500
ITAMSAT 1 31 Aug 14:28:45 14:33:51 61° 73° (ENE) 14:38:57 435.822/435.867
SWISSCUBE 31 Aug 14:36:38 14:41:17 52° 100° (E) 14:45:56 437.505
TISAT 1 31 Aug 14:37:14 14:40:40 25° 289° (WNW) 14:44:05 437.305
Oscar 19 31 Aug 14:49:09 14:49:55 10° 269° (W) 14:50:42 437.125/150
Gurwin Techsat 1B 31 Aug 14:51:34 14:55:42 23° 265° (W) 14:59:53 435.225
BEESAT 31 Aug 14:53:11 14:57:57 71° 103° (ESE) 15:02:41 436.000
KKS-1 31 Aug 15:28:32 15:31:13 16° 94° (E) 15:33:53 437.445
AO-7 31 Aug 15:33:00 15:41:22 79° 254° (WSW) 15:49:46 29.400- 29.500
ITUPSAT 1 31 Aug 15:44:01 15:48:16 33° 289° (WNW) 15:52:32 437.325
HORYU 2 31 Aug 15:45:35 15:48:10 15° 67° (ENE) 15:50:44 437.375
STARS 31 Aug 15:52:45 15:54:52 13° 93° (E) 15:56:58 437.465
Cosmos 2491 31 Aug 15:55:07 15:58:36 13° 77° (ENE) 16:02:04 435.465 / 435.565
SRMSAT 31 Aug 16:02:07 16:03:23 11° 196° (SSW) 16:04:38 437.500
MOZHAYETS 4 31 Aug 16:04:46 16:09:19 60° 101° (E) 16:13:51
ITAMSAT 1 31 Aug 16:11:22 16:13:38 13° 268° (W) 16:15:54 435.822/435.867
YUBILEINY 31 Aug 16:11:33 16:19:25 36° 75° (ENE) 16:27:11 435.215
BRITE-PL 31 Aug 16:15:40 16:18:22 15° 64° (ENE) 16:21:11 437.365/2234.400
SWISSCUBE 31 Aug 16:16:05 16:18:36 14° 295° (WNW) 16:21:07 437.505
BEESAT 31 Aug 16:34:09 16:35:05 11° 297° (WNW) 16:36:01 436.000
BEESAT 3 31 Aug 16:50:35 16:53:43 22° 53° (NE) 16:56:49 437.485
LilacSat-2 31 Aug 16:59:12 17:00:41 12° 68° (ENE) 17:02:11 437.200
KKS-1 31 Aug 17:03:46 17:07:53 38° 288° (WNW) 17:11:59 437.445
GOMX 1 31 Aug 17:05:34 17:09:28 22° 67° (ENE) 17:13:29 467.674
NOAA 18 31 Aug 17:19:34 17:24:13 29° 68° (ENE) 17:28:54 137.9125
HORYU 2 31 Aug 17:20:07 17:24:19 41° 260° (W) 17:28:33 437.375
STARS 31 Aug 17:27:14 17:31:24 43° 287° (WNW) 17:35:31 437.465
Cosmos 2504 31 Aug 17:27:32 17:34:00 35° 76° (ENE) 17:40:28 435.465 / 435.565
NOAA 15 31 Aug 17:27:34 17:32:35 48° 72° (ENE) 17:37:38 137.62
Cubesat XI-IV 31 Aug 17:30:52 17:35:47 39° 71° (ENE) 17:40:43 437.490
AO-7 31 Aug 17:32:25 17:35:08 12° 269° (W) 17:37:52 29.400- 29.500
CUBESAT XI-V 31 Aug 17:36:50 17:41:33 74° 101° (ESE) 17:46:15 437.345
CUTE-I 31 Aug 17:41:01 17:46:08 50° 72° (ENE) 17:51:15 437.470
MOZHAYETS 4 31 Aug 17:44:27 17:45:55 11° 295° (WNW) 17:47:24
Cosmos 2491 31 Aug 17:45:16 17:53:59 85° 95° (E) 18:02:47 435.465 / 435.565
BRITE-PL 31 Aug 17:51:22 17:56:10 59° 260° (W) 18:01:24 437.365/2234.400
YUBILEINY 31 Aug 18:08:09 18:16:12 43° 272° (W) 18:24:12 435.215
BEESAT 2 31 Aug 18:18:35 18:22:36 73° 242° (WSW) 18:26:33 435.950
DOVE 4 31 Aug 18:25:37 18:30:44 62° 74° (ENE) 18:35:59 437.250
BEESAT 3 31 Aug 18:28:01 18:31:19 25° 248° (WSW) 18:34:35 437.485
LilacSat-2 31 Aug 18:31:02 18:34:36 38° 261° (W) 18:38:12 437.200
CINEMA 3 31 Aug 18:34:53 18:38:34 21° 69° (ENE) 18:42:13 145.822/145.860
HO-68 31 Aug 18:37:59 18:44:03 31° 64° (ENE) 18:50:06 435.675
GOMX 1 31 Aug 18:42:21 18:47:09 40° 263° (W) 18:52:14 467.674
NOAA 18 31 Aug 18:59:50 19:04:44 32° 262° (W) 19:09:39 137.9125
PCSat 31 Aug 19:02:16 19:06:02 19° 51° (NE) 19:09:47 145.827
SEEDS 31 Aug 19:07:59 19:11:01 20° 70° (ENE) 19:14:04 437.485
NOAA 15 31 Aug 19:09:11 19:12:34 17° 266° (W) 19:15:58 137.62
STRAND 1 31 Aug 19:09:11 19:13:42 31° 97° (E) 19:18:13 437.568
Cubesat XI-IV 31 Aug 19:11:54 19:15:55 22° 265° (W) 19:19:58 437.490
AIST 1 31 Aug 19:19:30 19:23:26 31° 79° (ENE) 19:27:19
Cosmos 2504 31 Aug 19:20:58 19:27:12 33° 272° (W) 19:33:30 435.465 / 435.565
CUTE-I 31 Aug 19:23:03 19:26:23 17° 266° (W) 19:29:44 437.470
AAUSAT CUBESAT 2 31 Aug 19:26:11 19:28:51 17° 69° (ENE) 19:31:31 437.432
AIST 2 31 Aug 19:31:28 19:34:55 24° 53° (NE) 19:38:20 435.215
CANX-2 31 Aug 19:37:41 19:41:52 82° 77° (ENE) 19:46:05 2200.000
COMPASS 1 31 Aug 19:37:50 19:41:26 30° 72° (ENE) 19:45:04 437.405
CUTE 1.7 + AOD 2 31 Aug 19:42:51 19:47:02 81° 75° (ENE) 19:51:14 437.475
Cosmos 2491 31 Aug 19:46:37 19:51:51 17° 293° (WNW) 19:57:08 435.465 / 435.565
UWE-3 31 Aug 19:46:45 19:50:04 20° 70° (ENE) 19:53:20 435.000/436.395/437.385
ZACube-1 31 Aug 19:51:56 19:54:13 14° 68° (ENE) 19:56:28 437.345
CUBEBUG 2 31 Aug 19:57:44 20:02:07 42° 74° (ENE) 20:06:24 437.445
DOVE 4 31 Aug 20:06:17 20:08:46 13° 269° (W) 20:11:16 437.250
CINEMA 3 31 Aug 20:10:45 20:15:23 38° 262° (W) 20:20:00 145.822/145.860
HO-68 31 Aug 20:24:38 20:31:27 46° 260° (W) 20:38:18 435.675
DELFI C3 31 Aug 20:26:59 20:28:28 12° 67° (ENE) 20:29:57 145.870
